{"data":{"norad_id":65371,"epoch":"2026-09-20T22:38:44.743488Z","epoch_age_seconds":76568,"freshness":"FRESH","line1":"1 65371U 25190W   26263.94357342  .00013182  00000+0  40101-3 0  9998","line2":"2 65371  53.1589 339.5302 0001044 103.2567 256.8552 15.34366071 59679","mean_motion":15.34366071,"eccentricity":0.0001044,"inclination_deg":53.1589,"raan_deg":339.5302,"arg_perigee_deg":103.2567,"mean_anomaly_deg":256.8552,"bstar":0.00040101,"rev_number":5967,"period_min":93.849833310085,"perigee_km":462.08989195419,"apogee_km":463.51828045299,"semimajor_km":6840.9410862036,"source":"CELESTRAK","updated_at":"2026-09-21T09:00:35.579325Z"}}